FW9395 Weather Reports


Display with metric or nautical units.
time (UTC)temp
F
wind
direction
speed
MPH
gust
MPH
rain 1hr
in
rain 24hr
in
rain mn
in
humidity
%
barometer
mb
20260505002026 53 346 0.0 0.0 0.00 0.00 0.00 81 1011.7
20260505001523 54 262 0.0 0.0 0.00 0.00 0.00 81 1011.4
20260505001020 54 257 0.0 0.0 0.00 0.00 0.00 80 1011.4
20260505000517 54 279 0.0 0.0 0.00 0.00 0.00 80 1011.4
20260505000015 54 201 1.0 3.0 0.00 0.00 0.00 79 1011.4
20260504235511 54 267 2.0 7.0 0.00 0.00 0.00 78 1011.0
20260504235008 55 293 5.0 8.0 0.00 0.00 0.00 78 1011.4
20260504234505 55 267 3.0 4.0 0.00 0.00 0.00 77 1010.7
20260504234002 55 277 1.0 1.0 0.00 0.00 0.00 75 1011.0
20260504233457 56 282 2.0 3.0 0.00 0.00 0.00 74 1011.0
20260504232954 56 259 0.0 1.0 0.00 0.00 0.00 73 1010.7
20260504232451 56 326 3.0 4.0 0.00 0.00 0.00 73 1010.4
20260504231949 56 230 7.0 11.0 0.00 0.00 0.00 72 1010.4
20260504231445 57 253 3.0 4.0 0.00 0.00 0.00 71 1010.4
20260504230941 57 305 5.0 7.0 0.00 0.00 0.00 70 1010.4
20260504230438 57 314 4.0 5.0 0.00 0.00 0.00 69 1010.7
20260504225937 57 262 3.0 4.0 0.00 0.00 0.00 69 1010.7
20260504225433 57 265 0.0 1.0 0.00 0.00 0.00 69 1010.4
20260504224931 57 234 2.0 3.0 0.00 0.00 0.00 68 1010.4
20260504224427 58 325 1.0 3.0 0.00 0.00 0.00 67 1010.4
20260504223924 58 250 4.0 7.0 0.00 0.00 0.00 66 1010.4
20260504223420 58 225 3.0 4.0 0.00 0.00 0.00 65 1010.7
20260504222916 58 248 7.0 9.0 0.00 0.00 0.00 64 1010.4
20260504222414 59 184 5.0 7.0 0.00 0.00 0.00 63 1010.4
20260504221912 59 254 1.0 3.0 0.00 0.00 0.00 63 1010.4
20260504221408 59 267 2.0 3.0 0.00 0.00 0.00 63 1010.4
20260504220905 59 285 5.0 8.0 0.00 0.00 0.00 62 1010.4
20260504220402 60 335 4.0 5.0 0.00 0.00 0.00 61 1010.4
20260504215859 60 359 5.0 9.0 0.00 0.00 0.00 58 1010.4
20260504215355 61 267 6.0 9.0 0.00 0.00 0.00 58 1010.4
20260504214851 61 274 7.0 8.0 0.00 0.00 0.00 56 1010.7
20260504214348 61 280 8.0 11.0 0.00 0.00 0.00 56 1010.4
20260504213845 61 197 4.0 5.0 0.00 0.00 0.00 56 1010.4
20260504213341 61 223 2.0 4.0 0.00 0.00 0.00 57 1010.4
20260504212838 61 318 6.0 8.0 0.00 0.00 0.00 56 1010.7
20260504212334 62 217 3.0 4.0 0.00 0.00 0.00 56 1010.4
20260504211833 62 244 5.0 8.0 0.00 0.00 0.00 55 1010.4
20260504211328 62 240 4.0 5.0 0.00 0.00 0.00 56 1010.4
20260504210826 63 221 5.0 7.0 0.00 0.00 0.00 55 1010.4
20260504210322 62 273 4.0 5.0 0.00 0.00 0.00 55 1010.7
20260504205820 62 201 6.0 8.0 0.00 0.00 0.00 54 1010.4
20260504205317 63 215 5.0 7.0 0.00 0.00 0.00 53 1010.4
20260504204815 63 71 7.0 9.0 0.00 0.00 0.00 53 1010.7
20260504204314 64 240 8.0 11.0 0.00 0.00 0.00 51 1010.4
20260504203813 65 229 4.0 7.0 0.00 0.00 0.00 49 1010.4
20260504203309 64 240 6.0 8.0 0.00 0.00 0.00 50 1010.4
20260504202804 65 288 3.0 4.0 0.00 0.00 0.00 49 1010.4
20260504202304 65 279 9.0 12.0 0.00 0.00 0.00 48 1010.4
20260504201759 66 189 9.0 16.0 0.00 0.00 0.00 48 1010.4
20260504201256 65 241 13.0 15.0 0.00 0.00 0.00 48 1010.4
20260504200754 65 258 7.0 11.0 0.00 0.00 0.00 48 1010.4
20260504200249 66 154 4.0 7.0 0.00 0.00 0.00 47 1010.7
20260504195746 66 234 3.0 5.0 0.00 0.00 0.00 48 1010.4
20260504195242 66 276 6.0 9.0 0.00 0.00 0.00 48 1010.7
20260504194739 65 275 2.0 3.0 0.00 0.00 0.00 49 1010.4
20260504194235 64 298 5.0 9.0 0.00 0.00 0.00 50 1010.7
20260504193732 65 215 3.0 5.0 0.00 0.00 0.00 50 1010.4
20260504193229 65 269 4.0 7.0 0.00 0.00 0.00 49 1010.4
20260504192727 66 204 4.0 7.0 0.00 0.00 0.00 50 1010.4
20260504192225 65 217 8.0 11.0 0.00 0.00 0.00 49 1010.4
20260504191724 65 293 6.0 12.0 0.00 0.00 0.00 50 1010.7
20260504191220 65 197 6.0 11.0 0.00 0.00 0.00 50 1010.7
20260504190715 65 267 3.0 5.0 0.00 0.00 0.00 49 1010.4
20260504190212 67 240 3.0 4.0 0.00 0.00 0.00 47 1010.7
20260504185709 67 281 2.0 3.0 0.00 0.00 0.00 47 1010.7
20260504185206 66 178 5.0 7.0 0.00 0.00 0.00 47 1010.7
20260504184702 66 288 4.0 4.0 0.00 0.00 0.00 47 1011.0
20260504184157 65 293 5.0 9.0 0.00 0.00 0.00 47 1011.0
20260504183654 65 190 7.0 9.0 0.00 0.00 0.00 48 1010.7
20260504183151 65 277 6.0 8.0 0.00 0.00 0.00 48 1010.7
20260504182649 65 256 5.0 8.0 0.00 0.00 0.00 49 1011.0
20260504182146 64 337 3.0 4.0 0.00 0.00 0.00 48 1010.7
20260504181643 64 282 5.0 7.0 0.00 0.00 0.00 49 1011.4
20260504181141 65 338 7.0 9.0 0.00 0.00 0.00 45 1011.0
20260504180640 65 211 4.0 7.0 0.00 0.00 0.00 44 1011.4
20260504180138 65 226 4.0 7.0 0.00 0.00 0.00 42 1011.4
20260504175635 65 254 4.0 4.0 0.00 0.00 0.00 42 1011.4
20260504175131 64 281 2.0 4.0 0.00 0.00 0.00 42 1011.4
20260504174630 63 300 6.0 11.0 0.00 0.00 0.00 44 1011.7
20260504174126 64 294 5.0 5.0 0.00 0.00 0.00 45 1011.7
20260504173623 65 214 4.0 5.0 0.00 0.00 0.00 44 1011.7
20260504173121 64 254 4.0 5.0 0.00 0.00 0.00 42 1011.4
20260504172617 65 303 9.0 13.0 0.00 0.00 0.00 41 1011.7
20260504172114 64 271 5.0 5.0 0.00 0.00 0.00 40 1011.4
20260504171610 64 262 4.0 5.0 0.00 0.00 0.00 41 1011.4
20260504171108 64 275 5.0 7.0 0.00 0.00 0.00 41 1011.7
20260504170603 65 249 10.0 12.0 0.00 0.00 0.00 41 1011.7
20260504150947 63 282 5.0 7.0 0.00 0.00 0.00 41 1012.7
20260504150443 63 310 5.0 7.0 0.00 0.00 0.00 40 1012.7
20260504140910 61 313 5.0 8.0 0.00 0.00 0.00 42 1013.1
20260504140406 61 278 6.0 8.0 0.00 0.00 0.00 42 1013.4
20260504130331 58 276 6.0 12.0 0.00 0.00 0.00 52 1013.4
20260504120254 54 291 3.0 4.0 0.00 0.00 0.00 64 1013.7
20260504110218 52 251 1.0 1.0 0.00 0.00 0.00 69 1013.4
20260504100136 46 298 1.0 1.0 0.00 0.00 0.00 79 1013.4
20260504081529 43 273 0.0 0.0 0.00 0.00 0.00 83 1012.7
20260504081025 43 273 0.0 0.0 0.00 0.00 0.00 83 1012.7
20260504080522 43 273 0.0 0.0 0.00 0.00 0.00 83 1012.7
20260504050334 42 273 0.0 0.0 0.00 0.00 0.00 81 1012.1
20260504045832 42 273 0.0 0.0 0.00 0.00 0.00 80 1012.1
20260504045326 43 273 0.0 0.0 0.00 0.00 0.00 80 1012.4
20260504044823 43 273 0.0 0.0 0.00 0.00 0.00 80 1012.1
20260504044321 44 273 0.0 0.0 0.00 0.00 0.00 79 1012.1
20260504043818 44 273 0.0 0.0 0.00 0.00 0.00 79 1012.4
20260504043315 44 273 0.0 0.0 0.00 0.00 0.00 79 1012.4
20260504042812 44 273 0.0 0.0 0.00 0.00 0.00 78 1012.4
20260504042308 44 273 0.0 0.0 0.00 0.00 0.00 78 1012.1
20260504041805 44 273 0.0 0.0 0.00 0.00 0.00 78 1012.4
20260504041301 44 273 0.0 0.0 0.00 0.00 0.00 77 1012.1
20260504040757 44 273 0.0 0.0 0.00 0.00 0.00 77 1012.4
20260504040255 44 273 0.0 0.0 0.00 0.00 0.00 76 1012.1
20260504035750 45 273 0.0 0.0 0.00 0.00 0.00 76 1012.1
20260504035248 45 273 0.0 0.0 0.00 0.00 0.00 76 1012.1
20260504034745 45 273 0.0 0.0 0.00 0.00 0.00 75 1012.1
20260504034242 45 273 0.0 0.0 0.00 0.00 0.00 75 1012.1
20260504033740 45 273 0.0 0.0 0.00 0.00 0.00 75 1012.1
20260504033237 45 273 0.0 0.0 0.00 0.00 0.00 74 1012.1
20260504032734 46 273 0.0 0.0 0.00 0.00 0.00 73 1012.1
20260504032231 46 273 0.0 0.0 0.00 0.00 0.00 72 1012.1
20260504031728 46 273 0.0 0.0 0.00 0.00 0.00 72 1012.1
20260504031226 46 273 0.0 0.0 0.00 0.00 0.00 72 1012.1
20260504030721 46 273 0.0 0.0 0.00 0.00 0.00 71 1012.1
20260504030219 46 273 0.0 0.0 0.00 0.00 0.00 69 1012.1
20260504025715 47 273 0.0 0.0 0.00 0.00 0.00 68 1012.1
20260504025212 47 273 0.0 0.0 0.00 0.00 0.00 68 1012.1
20260504024709 47 273 0.0 0.0 0.00 0.00 0.00 67 1011.7
20260504024205 47 273 0.0 0.0 0.00 0.00 0.00 67 1011.4
20260504023702 47 273 0.0 0.0 0.00 0.00 0.00 66 1011.7
20260504023158 48 273 0.0 0.0 0.00 0.00 0.00 65 1012.1
20260504022654 48 273 0.0 0.0 0.00 0.00 0.00 63 1012.1
20260504022150 48 273 0.0 0.0 0.00 0.00 0.00 62 1012.1
20260504021648 48 273 0.0 0.0 0.00 0.00 0.00 59 1011.7
20260504021145 48 271 0.0 0.0 0.00 0.00 0.00 56 1011.7
20260504020642 49 269 0.0 0.0 0.00 0.00 0.00 53 1011.7
20260504020138 48 280 2.0 3.0 0.00 0.00 0.00 49 1011.7
20260504015635 48 274 0.0 0.0 0.00 0.00 0.00 49 1011.7
20260504015131 48 274 0.0 0.0 0.00 0.00 0.00 49 1011.7
20260504014627 48 274 0.0 0.0 0.00 0.00 0.00 49 1011.4
20260504014124 48 274 0.0 0.0 0.00 0.00 0.00 49 1011.7
20260504013621 48 274 0.0 0.0 0.00 0.00 0.00 48 1011.7
20260504013119 48 275 0.0 0.0 0.00 0.00 0.00 47 1011.4
20260504012616 48 274 0.0 0.0 0.00 0.00 0.00 50 1011.4
20260504012114 48 274 0.0 0.0 0.00 0.00 0.00 47 1011.4
20260504011610 48 274 0.0 0.0 0.00 0.00 0.00 48 1011.4
20260504011107 49 274 0.0 0.0 0.00 0.00 0.00 46 1011.4
20260504010602 49 274 0.0 0.0 0.00 0.00 0.00 47 1011.0
20260504010058 49 274 0.0 0.0 0.00 0.00 0.00 46 1011.0
20260504005555 49 274 0.0 0.0 0.00 0.00 0.00 45 1010.7
20260504005053 49 274 0.0 0.0 0.00 0.00 0.00 47 1010.7
20260504004550 49 274 0.0 0.0 0.00 0.00 0.00 46 1010.7
20260504004047 48 274 0.0 0.0 0.00 0.00 0.00 48 1010.7
20260504003543 48 274 0.0 0.0 0.00 0.00 0.00 48 1010.7
20260504003040 49 274 0.0 0.0 0.00 0.00 0.00 46 1010.7
20260504002537 49 274 0.0 0.0 0.00 0.00 0.00 48 1010.4